"Sample Date","Sample Time","Sample Value","Units","Flow Rate","Number Channels","Micron Size 0","Counts/Channel 0","Micron Size 1","Counts/Channel 1","Micron Size 2","Counts/Channel 2","Micron Size 3","Counts/Channel 3","Micron Size 4","Counts/Channel 4","Micron Size 5","Counts/Channel 5","Micron Size 6","Counts/Channel 6","Micron Size 7","Counts/Channel 7","Micron Size 8","Counts/Channel 8","Micron Size 9","Counts/Channel 9","Micron Size 10","Counts/Channel 10","Micron Size 11","Counts/Channel 11","Micron Size 12","Counts/Channel 12","Micron Size 13","Counts/Channel 13","Micron Size 14","Counts/Channel 14","Micron Size 15","Counts/Channel 15","Micron Size 16","Counts/Channel 16","Micron Size 17","Counts/Channel 17","Micron Size 18","Counts/Channel 18","Micron Size 19","Counts/Channel 19","Micron Size 20","Counts/Channel 20","Micron Size 21","Counts/Channel 21","Micron Size 22","Counts/Channel 22","Micron Size 23","Counts/Channel 23","Micron Size 24","Counts/Channel 24","Micron Size 25","Counts/Channel 25","Micron Size 26","Counts/Channel 26","Micron Size 27","Counts/Channel 27","Micron Size 28","Counts/Channel 28","Micron Size 29","Counts/Channel 29","Micron Size 30","Counts/Channel 30","Micron Size 31","Counts/Channel 31"
"05/10/08","05:00:00",11169.000,"cc",28319.647,6,0.100,9563.000,0.200,1462.000,0.300,122.000,0.500,22.000,1.000,0,5.000,0
"05/10/08","05:00:06",16162.000,"cc",28352.244,6,0.100,13825.000,0.200,2173.000,0.300,143.000,0.500,21.000,1.000,0,5.000,0
"05/10/08","05:00:12",10475.000,"cc",28315.176,6,0.100,8904.000,0.200,1461.000,0.300,87.000,0.500,20.000,1.000,3.000,5.000,0
"05/10/08","05:00:18",12997.000,"cc",28286.305,6,0.100,11171.000,0.200,1705.000,0.300,96.000,0.500,24.000,1.000,1.000,5.000,0
"05/10/08","05:00:24",24141.000,"cc",28280.508,6,0.100,20895.000,0.200,3048.000,0.300,165.000,0.500,29.000,1.000,4.000,5.000,0
"05/10/08","05:00:30",26062.000,"cc",28338.582,6,0.100,22666.000,0.200,3231.000,0.300,150.000,0.500,12.000,1.000,3.000,5.000,0
"05/10/08","05:00:36",35118.000,"cc",28332.627,6,0.100,30512.000,0.200,4369.000,0.300,215.000,0.500,20.000,1.000,2.000,5.000,0
"05/10/08","05:00:42",30250.000,"cc",28317.309,6,0.100,26194.000,0.200,3837.000,0.300,194.000,0.500,25.000,1.000,0,5.000,0
"05/10/08","05:00:48",18740.000,"cc",28291.986,6,0.100,16155.000,0.200,2446.000,0.300,110.000,0.500,26.000,1.000,3.000,5.000,0
"05/10/08","05:00:54",18823.000,"cc",28302.065,6,0.100,16117.000,0.200,2543.000,0.300,142.000,0.500,18.000,1.000,3.000,5.000,0
"05/10/08","05:01:00",13302.000,"cc",28345.752,6,0.100,11313.000,0.200,1884.000,0.300,92.000,0.500,12.000,1.000,1.000,5.000,0
"05/10/08","05:01:06",17857.000,"cc",28279.469,6,0.100,15366.000,0.200,2336.000,0.300,131.000,0.500,21.000,1.000,3.000,5.000,0
"05/10/08","05:01:12",19398.000,"cc",28308.793,6,0.100,16730.000,0.200,2494.000,0.300,145.000,0.500,28.000,1.000,1.000,5.000,0
"05/10/08","05:01:18",22869.000,"cc",28343.309,6,0.100,19739.000,0.200,2940.000,0.300,161.000,0.500,26.000,1.000,3.000,5.000,0
"05/10/08","05:01:24",14662.000,"cc",28352.041,6,0.100,12551.000,0.200,1965.000,0.300,126.000,0.500,18.000,1.000,2.000,5.000,0
"05/10/08","05:01:30",19979.000,"cc",28276.412,6,0.100,17225.000,0.200,2607.000,0.300,128.000,0.500,16.000,1.000,3.000,5.000,0
"05/10/08","05:01:36",20377.000,"cc",28351.059,6,0.100,17619.000,0.200,2601.000,0.300,135.000,0.500,21.000,1.000,1.000,5.000,0
"05/10/08","05:01:42",16328.000,"cc",28379.383,6,0.100,14043.000,0.200,2126.000,0.300,138.000,0.500,19.000,1.000,2.000,5.000,0
"05/10/08","05:01:48",30384.000,"cc",28297.127,6,0.100,26330.000,0.200,3834.000,0.300,198.000,0.500,20.000,1.000,2.000,5.000,0
"05/10/08","05:01:54",40164.000,"cc",28295.572,6,0.100,34896.000,0.200,5003.000,0.300,240.000,0.500,25.000,1.000,0,5.000,0
"05/10/08","05:02:00",33541.000,"cc",28295.678,6,0.100,29241.000,0.200,4098.000,0.300,175.000,0.500,25.000,1.000,2.000,5.000,0
"05/10/08","05:02:06",29032.000,"cc",28314.215,6,0.100,25213.000,0.200,3615.000,0.300,183.000,0.500,21.000,1.000,0,5.000,0
"05/10/08","05:02:12",32014.000,"cc",28300.279,6,0.100,27771.000,0.200,4027.000,0.300,192.000,0.500,23.000,1.000,1.000,5.000,0
"05/10/08","05:02:18",18410.000,"cc",28262.086,6,0.100,15868.000,0.200,2389.000,0.300,129.000,0.500,21.000,1.000,3.000,5.000,0
"05/10/08","05:02:24",24717.000,"cc",28381.588,6,0.100,21560.000,0.200,2988.000,0.300,154.000,0.500,12.000,1.000,3.000,5.000,0
"05/10/08","05:02:30",22498.000,"cc",28370.701,6,0.100,19540.000,0.200,2775.000,0.300,162.000,0.500,19.000,1.000,2.000,5.000,0
"05/10/08","05:02:36",33005.000,"cc",28270.195,6,0.100,28709.000,0.200,4077.000,0.300,196.000,0.500,21.000,1.000,2.000,5.000,0
"05/10/08","05:02:42",27086.000,"cc",28320.426,6,0.100,23574.000,0.200,3325.000,0.300,167.000,0.500,19.000,1.000,1.000,5.000,0
"05/10/08","05:02:48",22984.000,"cc",28295.777,6,0.100,19942.000,0.200,2871.000,0.300,146.000,0.500,21.000,1.000,4.000,5.000,0
"05/10/08","05:02:54",45468.000,"cc",28295.854,6,0.100,39562.000,0.200,5607.000,0.300,268.000,0.500,29.000,1.000,2.000,5.000,0
"05/10/08","05:03:00",35940.000,"cc",28252.039,6,0.100,31203.000,0.200,4530.000,0.300,193.000,0.500,13.000,1.000,1.000,5.000,0
"05/10/08","05:03:06",30889.000,"cc",28290.455,6,0.100,26878.000,0.200,3792.000,0.300,195.000,0.500,22.000,1.000,2.000,5.000,0
"05/10/08","05:03:12",23740.000,"cc",28311.615,6,0.100,20591.000,0.200,2963.000,0.300,165.000,0.500,21.000,1.000,0,5.000,0
"05/10/08","05:03:18",12567.000,"cc",28379.002,6,0.100,10837.000,0.200,1601.000,0.300,101.000,0.500,27.000,1.000,1.000,5.000,0
"05/10/08","05:03:24",13402.000,"cc",28319.607,6,0.100,11483.000,0.200,1779.000,0.300,117.000,0.500,20.000,1.000,3.000,5.000,0
"05/10/08","05:03:30",17426.000,"cc",28314.111,6,0.100,15086.000,0.200,2198.000,0.300,120.000,0.500,20.000,1.000,2.000,5.000,0
"05/10/08","05:03:36",17943.000,"cc",28285.203,6,0.100,15616.000,0.200,2188.000,0.300,116.000,0.500,23.000,1.000,0,5.000,0
"05/10/08","05:03:42",29284.000,"cc",28366.365,6,0.100,25485.000,0.200,3614.000,0.300,160.000,0.500,24.000,1.000,1.000,5.000,0
"05/10/08","05:03:48",39926.000,"cc",28364.096,6,0.100,34941.000,0.200,4752.000,0.300,214.000,0.500,19.000,1.000,0,5.000,0
"05/10/08","05:03:54",54310.000,"cc",28344.223,6,0.100,47497.000,0.200,6516.000,0.300,274.000,0.500,21.000,1.000,2.000,5.000,0
"05/10/08","05:04:00",69159.000,"cc",28333.707,6,0.100,60284.000,0.200,8506.000,0.300,340.000,0.500,27.000,1.000,2.000,5.000,0
"05/10/08","05:04:06",39076.000,"cc",28304.662,6,0.100,34089.000,0.200,4776.000,0.300,188.000,0.500,20.000,1.000,3.000,5.000,0
"05/10/08","05:04:12",31494.000,"cc",28340.898,6,0.100,27384.000,0.200,3946.000,0.300,142.000,0.500,17.000,1.000,5.000,5.000,0
"05/10/08","05:04:18",24695.000,"cc",28244.223,6,0.100,21413.000,0.200,3106.000,0.300,149.000,0.500,27.000,1.000,0,5.000,0
"05/10/08","05:04:24",23541.000,"cc",28341.904,6,0.100,20456.000,0.200,2900.000,0.300,157.000,0.500,25.000,1.000,3.000,5.000,0
"05/10/08","05:04:30",16362.000,"cc",28272.481,6,0.100,14060.000,0.200,2161.000,0.300,112.000,0.500,27.000,1.000,2.000,5.000,0
"05/10/08","05:04:36",23769.000,"cc",28316.572,6,0.100,20653.000,0.200,2969.000,0.300,126.000,0.500,18.000,1.000,3.000,5.000,0
"05/10/08","05:04:42",17273.000,"cc",28289.014,6,0.100,14968.000,0.200,2145.000,0.300,137.000,0.500,23.000,1.000,0,5.000,0
"05/10/08","05:04:48",17798.000,"cc",28274.449,6,0.100,15412.000,0.200,2250.000,0.300,116.000,0.500,20.000,1.000,0,5.000,0
"05/10/08","05:04:54",24123.000,"cc",28339.981,6,0.100,21045.000,0.200,2903.000,0.300,151.000,0.500,23.000,1.000,1.000,5.000,0
"05/10/08","05:05:00",19946.000,"cc",28368.455,6,0.100,17388.000,0.200,2408.000,0.300,128.000,0.500,21.000,1.000,1.000,5.000,0
"05/10/08","05:05:06",17832.000,"cc",28319.951,6,0.100,15546.000,0.200,2118.000,0.300,142.000,0.500,24.000,1.000,2.000,5.000,0
"05/10/08","05:05:12",14403.000,"cc",28293.281,6,0.100,12412.000,0.200,1848.000,0.300,123.000,0.500,19.000,1.000,1.000,5.000,0
"05/10/08","05:05:18",14686.000,"cc",28280.512,6,0.100,12741.000,0.200,1802.000,0.300,125.000,0.500,18.000,1.000,0,5.000,0
"05/10/08","05:05:24",16700.000,"cc",28337.305,6,0.100,14472.000,0.200,2100.000,0.300,107.000,0.500,21.000,1.000,0,5.000,0
"05/10/08","05:05:30",25039.000,"cc",28328.467,6,0.100,21815.000,0.200,3051.000,0.300,155.000,0.500,18.000,1.000,0,5.000,0
"05/10/08","05:05:36",17723.000,"cc",28301.426,6,0.100,15363.000,0.200,2222.000,0.300,114.000,0.500,21.000,1.000,3.000,5.000,0
"05/10/08","05:05:42",13768.000,"cc",28260.756,6,0.100,11818.000,0.200,1794.000,0.300,138.000,0.500,17.000,1.000,1.000,5.000,0
"05/10/08","05:05:48",7564.000,"cc",28322.459,6,0.100,6327.000,0.200,1126.000,0.300,93.000,0.500,17.000,1.000,1.000,5.000,0
"05/10/08","05:05:54",9428.000,"cc",28337.936,6,0.100,7977.000,0.200,1330.000,0.300,97.000,0.500,21.000,1.000,3.000,5.000,0
"05/10/08","05:06:00",6750.000,"cc",28296.162,6,0.100,5608.000,0.200,1050.000,0.300,67.000,0.500,24.000,1.000,1.000,5.000,0
"05/10/08","05:06:06",8091.000,"cc",28358.559,6,0.100,6783.000,0.200,1169.000,0.300,118.000,0.500,20.000,1.000,1.000,5.000,0
"05/10/08","05:06:12",6045.000,"cc",28357.772,6,0.100,5054.000,0.200,870.000,0.300,105.000,0.500,14.000,1.000,2.000,5.000,0
"05/10/08","05:06:18",14005.000,"cc",28282.488,6,0.100,11927.000,0.200,1910.000,0.300,139.000,0.500,27.000,1.000,2.000,5.000,0
"05/10/08","05:06:24",14987.000,"cc",28306.430,6,0.100,12797.000,0.200,2016.000,0.300,148.000,0.500,25.000,1.000,1.000,5.000,0
"05/10/08","05:06:30",14600.000,"cc",28374.529,6,0.100,12529.000,0.200,1903.000,0.300,141.000,0.500,27.000,1.000,0,5.000,0
"05/10/08","05:06:36",11636.000,"cc",28301.656,6,0.100,9958.000,0.200,1556.000,0.300,101.000,0.500,18.000,1.000,3.000,5.000,0
"05/10/08","05:06:42",21144.000,"cc",28304.990,6,0.100,18273.000,0.200,2672.000,0.300,169.000,0.500,28.000,1.000,2.000,5.000,0
"05/10/08","05:06:48",24297.000,"cc",28373.031,6,0.100,21018.000,0.200,3065.000,0.300,183.000,0.500,29.000,1.000,2.000,5.000,0
"05/10/08","05:06:54",20252.000,"cc",28304.887,6,0.100,17540.000,0.200,2521.000,0.300,163.000,0.500,28.000,1.000,0,5.000,0
"05/10/08","05:07:00",15482.000,"cc",28242.898,6,0.100,13248.000,0.200,2084.000,0.300,128.000,0.500,19.000,1.000,3.000,5.000,0
"05/10/08","05:07:06",18810.000,"cc",28309.525,6,0.100,16079.000,0.200,2536.000,0.300,162.000,0.500,28.000,1.000,5.000,5.000,0
"05/10/08","05:07:12",26857.000,"cc",28321.606,6,0.100,23209.000,0.200,3449.000,0.300,179.000,0.500,18.000,1.000,2.000,5.000,0
"05/10/08","05:07:18",26097.000,"cc",28368.512,6,0.100,22469.000,0.200,3437.000,0.300,166.000,0.500,25.000,1.000,0,5.000,0
"05/10/08","05:07:24",15647.000,"cc",28320.824,6,0.100,13379.000,0.200,2115.000,0.300,132.000,0.500,20.000,1.000,1.000,5.000,0
"05/10/08","05:07:30",16303.000,"cc",28302.158,6,0.100,13929.000,0.200,2203.000,0.300,146.000,0.500,23.000,1.000,2.000,5.000,0
"05/10/08","05:07:36",17298.000,"cc",28341.123,6,0.100,14821.000,0.200,2312.000,0.300,144.000,0.500,21.000,1.000,0,5.000,0
"05/10/08","05:07:42",17907.000,"cc",28290.926,6,0.100,15336.000,0.200,2413.000,0.300,139.000,0.500,17.000,1.000,2.000,5.000,0
"05/10/08","05:07:48",13568.000,"cc",28361.303,6,0.100,11559.000,0.200,1862.000,0.300,119.000,0.500,26.000,1.000,2.000,5.000,0
"05/10/08","05:07:54",11323.000,"cc",28300.565,6,0.100,9631.000,0.200,1572.000,0.300,100.000,0.500,20.000,1.000,0,5.000,0
"05/10/08","05:08:00",14686.000,"cc",28299.479,6,0.100,12491.000,0.200,2064.000,0.300,104.000,0.500,25.000,1.000,2.000,5.000,0
"05/10/08","05:08:06",18995.000,"cc",28372.027,6,0.100,16313.000,0.200,2519.000,0.300,145.000,0.500,14.000,1.000,4.000,5.000,0
"05/10/08","05:08:12",14422.000,"cc",28309.893,6,0.100,12317.000,0.200,1920.000,0.300,158.000,0.500,25.000,1.000,2.000,5.000,0
"05/10/08","05:08:18",17476.000,"cc",28359.785,6,0.100,14930.000,0.200,2348.000,0.300,168.000,0.500,27.000,1.000,3.000,5.000,0
"05/10/08","05:08:24",10244.000,"cc",28253.711,6,0.100,8658.000,0.200,1472.000,0.300,92.000,0.500,18.000,1.000,4.000,5.000,0
"05/10/08","05:08:30",13915.000,"cc",28295.371,6,0.100,11823.000,0.200,1949.000,0.300,119.000,0.500,24.000,1.000,0,5.000,0
"05/10/08","05:08:36",14537.000,"cc",28342.520,6,0.100,12465.000,0.200,1924.000,0.300,125.000,0.500,21.000,1.000,2.000,5.000,0
"05/10/08","05:08:42",17552.000,"cc",28336.205,6,0.100,15051.000,0.200,2342.000,0.300,135.000,0.500,22.000,1.000,2.000,5.000,0
"05/10/08","05:08:48",12388.000,"cc",28321.557,6,0.100,10503.000,0.200,1757.000,0.300,114.000,0.500,14.000,1.000,0,5.000,0
"05/10/08","05:08:54",19776.000,"cc",28307.359,6,0.100,16824.000,0.200,2764.000,0.300,163.000,0.500,23.000,1.000,2.000,5.000,0
"05/10/08","05:09:00",18580.000,"cc",28342.449,6,0.100,15940.000,0.200,2480.000,0.300,135.000,0.500,23.000,1.000,2.000,5.000,0
"05/10/08","05:09:06",13216.000,"cc",28307.770,6,0.100,11227.000,0.200,1844.000,0.300,121.000,0.500,23.000,1.000,1.000,5.000,0
"05/10/08","05:09:12",17363.000,"cc",28370.123,6,0.100,14809.000,0.200,2388.000,0.300,138.000,0.500,27.000,1.000,1.000,5.000,0
"05/10/08","05:09:18",14534.000,"cc",28300.277,6,0.100,12305.000,0.200,2075.000,0.300,130.000,0.500,22.000,1.000,2.000,5.000,0
"05/10/08","05:09:24",13311.000,"cc",28261.172,6,0.100,11282.000,0.200,1886.000,0.300,121.000,0.500,21.000,1.000,1.000,5.000,0
"05/10/08","05:09:30",24613.000,"cc",28340.508,6,0.100,21051.000,0.200,3371.000,0.300,170.000,0.500,18.000,1.000,3.000,5.000,0
"05/10/08","05:09:36",25446.000,"cc",28337.777,6,0.100,21776.000,0.200,3471.000,0.300,173.000,0.500,23.000,1.000,3.000,5.000,0
"05/10/08","05:09:42",16318.000,"cc",28265.805,6,0.100,13892.000,0.200,2271.000,0.300,133.000,0.500,17.000,1.000,5.000,5.000,0
"05/10/08","05:09:48",17684.000,"cc",28332.557,6,0.100,14937.000,0.200,2570.000,0.300,161.000,0.500,15.000,1.000,1.000,5.000,0
"05/10/08","05:09:54",20239.000,"cc",28315.828,6,0.100,17097.000,0.200,2960.000,0.300,157.000,0.500,25.000,1.000,0,5.000,0
"05/10/08","05:10:00",22218.000,"cc",28350.307,6,0.100,18987.000,0.200,3025.000,0.300,182.000,0.500,23.000,1.000,1.000,5.000,0
"05/10/08","05:10:06",19547.000,"cc",28338.535,6,0.100,16676.000,0.200,2691.000,0.300,165.000,0.500,14.000,1.000,1.000,5.000,0
"05/10/08","05:10:12",23468.000,"cc",28261.107,6,0.100,19941.000,0.200,3293.000,0.300,219.000,0.500,14.000,1.000,1.000,5.000,0
"05/10/08","05:10:18",27262.000,"cc",28337.158,6,0.100,23265.000,0.200,3739.000,0.300,237.000,0.500,20.000,1.000,1.000,5.000,0
"05/10/08","05:10:24",27910.000,"cc",28299.488,6,0.100,23829.000,0.200,3795.000,0.300,256.000,0.500,29.000,1.000,1.000,5.000,0
"05/10/08","05:10:30",20699.000,"cc",28317.537,6,0.100,17600.000,0.200,2903.000,0.300,179.000,0.500,17.000,1.000,0,5.000,0
"05/10/08","05:10:36",26466.000,"cc",28322.381,6,0.100,22509.000,0.200,3712.000,0.300,227.000,0.500,16.000,1.000,2.000,5.000,0
"05/10/08","05:10:42",22837.000,"cc",28347.221,6,0.100,19335.000,0.200,3257.000,0.300,216.000,0.500,27.000,1.000,2.000,5.000,0
"05/10/08","05:10:48",13819.000,"cc",28273.510,6,0.100,11610.000,0.200,2037.000,0.300,150.000,0.500,21.000,1.000,1.000,5.000,0
"05/10/08","05:10:54",11832.000,"cc",28308.256,6,0.100,9911.000,0.200,1786.000,0.300,122.000,0.500,12.000,1.000,1.000,5.000,0
"05/10/08","05:11:00",15321.000,"cc",28297.441,6,0.100,12907.000,0.200,2244.000,0.300,152.000,0.500,17.000,1.000,1.000,5.000,0
"05/10/08","05:11:06",29556.000,"cc",28328.315,6,0.100,25041.000,0.200,4201.000,0.300,289.000,0.500,23.000,1.000,2.000,5.000,0
"05/10/08","05:11:12",24994.000,"cc",28299.684,6,0.100,21158.000,0.200,3587.000,0.300,221.000,0.500,26.000,1.000,2.000,5.000,0
"05/10/08","05:11:18",28547.000,"cc",28374.662,6,0.100,24212.000,0.200,4075.000,0.300,241.000,0.500,16.000,1.000,3.000,5.000,0
"05/10/08","05:11:24",25183.000,"cc",28341.961,6,0.100,21327.000,0.200,3618.000,0.300,217.000,0.500,20.000,1.000,1.000,5.000,0
"05/10/08","05:11:30",18982.000,"cc",28269.066,6,0.100,15974.000,0.200,2804.000,0.300,188.000,0.500,16.000,1.000,0,5.000,0
"05/10/08","05:11:36",18228.000,"cc",28333.756,6,0.100,15361.000,0.200,2663.000,0.300,193.000,0.500,9.000,1.000,2.000,5.000,0
"05/10/08","05:11:42",15941.000,"cc",28311.260,6,0.100,13342.000,0.200,2368.000,0.300,205.000,0.500,22.000,1.000,4.000,5.000,0
"05/10/08","05:11:48",18752.000,"cc",28334.078,6,0.100,15639.000,0.200,2896.000,0.300,195.000,0.500,22.000,1.000,0,5.000,0
"05/10/08","05:11:54",19307.000,"cc",28288.125,6,0.100,16162.000,0.200,2922.000,0.300,202.000,0.500,18.000,1.000,3.000,5.000,0
"05/10/08","05:12:00",25962.000,"cc",28405.883,6,0.100,21897.000,0.200,3775.000,0.300,263.000,0.500,23.000,1.000,4.000,5.000,0
"05/10/08","05:12:06",15355.000,"cc",28301.025,6,0.100,12757.000,0.200,2380.000,0.300,200.000,0.500,16.000,1.000,2.000,5.000,0
"05/10/08","05:12:12",30051.000,"cc",28302.615,6,0.100,25362.000,0.200,4387.000,0.300,280.000,0.500,19.000,1.000,3.000,5.000,0
"05/10/08","05:12:18",24448.000,"cc",28264.887,6,0.100,20594.000,0.200,3602.000,0.300,230.000,0.500,20.000,1.000,2.000,5.000,0
"05/10/08","05:12:24",25363.000,"cc",28341.217,6,0.100,21572.000,0.200,3509.000,0.300,259.000,0.500,18.000,1.000,5.000,5.000,0
"05/10/08","05:12:30",25877.000,"cc",28361.979,6,0.100,21819.000,0.200,3816.000,0.300,225.000,0.500,17.000,1.000,0,5.000,0
"05/10/08","05:12:36",15064.000,"cc",28345.289,6,0.100,12603.000,0.200,2313.000,0.300,130.000,0.500,14.000,1.000,4.000,5.000,0
"05/10/08","05:12:42",21832.000,"cc",28246.830,6,0.100,18458.000,0.200,3147.000,0.300,207.000,0.500,18.000,1.000,2.000,5.000,0
"05/10/08","05:12:48",17385.000,"cc",28313.045,6,0.100,14548.000,0.200,2646.000,0.300,171.000,0.500,17.000,1.000,3.000,5.000,0
"05/10/08","05:12:54",24541.000,"cc",28287.449,6,0.100,20726.000,0.200,3547.000,0.300,248.000,0.500,19.000,1.000,1.000,5.000,0
"05/10/08","05:13:00",17558.000,"cc",28323.022,6,0.100,14843.000,0.200,2519.000,0.300,178.000,0.500,16.000,1.000,2.000,5.000,0
"05/10/08","05:13:06",14585.000,"cc",28344.117,6,0.100,12213.000,0.200,2165.000,0.300,186.000,0.500,17.000,1.000,4.000,5.000,0
"05/10/08","05:13:12",14726.000,"cc",28291.020,6,0.100,12306.000,0.200,2251.000,0.300,145.000,0.500,23.000,1.000,1.000,5.000,0
"05/10/08","05:13:18",16685.000,"cc",28288.641,6,0.100,14066.000,0.200,2422.000,0.300,183.000,0.500,14.000,1.000,0,5.000,0
"05/10/08","05:13:24",16157.000,"cc",28354.998,6,0.100,13482.000,0.200,2447.000,0.300,204.000,0.500,18.000,1.000,6.000,5.000,0
"05/10/08","05:13:30",13161.000,"cc",28281.893,6,0.100,10987.000,0.200,2004.000,0.300,153.000,0.500,17.000,1.000,0,5.000,0
"05/10/08","05:13:36",11582.000,"cc",28355.863,6,0.100,9590.000,0.200,1839.000,0.300,137.000,0.500,15.000,1.000,1.000,5.000,0
"05/10/08","05:13:42",10747.000,"cc",28295.547,6,0.100,8821.000,0.200,1750.000,0.300,154.000,0.500,20.000,1.000,2.000,5.000,0
"05/10/08","05:13:48",16394.000,"cc",28342.799,6,0.100,13655.000,0.200,2497.000,0.300,206.000,0.500,35.000,1.000,1.000,5.000,0
"05/10/08","05:13:54",11975.000,"cc",28311.471,6,0.100,9954.000,0.200,1848.000,0.300,154.000,0.500,17.000,1.000,2.000,5.000,0
"05/10/08","05:14:00",12894.000,"cc",28322.440,6,0.100,10736.000,0.200,1957.000,0.300,175.000,0.500,25.000,1.000,1.000,5.000,0
"05/10/08","05:14:06",11733.000,"cc",28315.014,6,0.100,9771.000,0.200,1817.000,0.300,124.000,0.500,19.000,1.000,2.000,5.000,0
"05/10/08","05:14:12",7773.000,"cc",28327.592,6,0.100,6350.000,0.200,1285.000,0.300,121.000,0.500,13.000,1.000,4.000,5.000,0
"05/10/08","05:14:18",6240.000,"cc",28338.201,6,0.100,5064.000,0.200,1058.000,0.300,98.000,0.500,18.000,1.000,2.000,5.000,0
"05/10/08","05:14:24",9161.000,"cc",28338.951,6,0.100,7510.000,0.200,1503.000,0.300,127.000,0.500,20.000,1.000,1.000,5.000,0
"05/10/08","05:14:30",9438.000,"cc",28326.152,6,0.100,7745.000,0.200,1541.000,0.300,128.000,0.500,21.000,1.000,3.000,5.000,0
"05/10/08","05:14:36",10587.000,"cc",28311.387,6,0.100,8778.000,0.200,1638.000,0.300,146.000,0.500,24.000,1.000,1.000,5.000,0
"05/10/08","05:14:42",5942.000,"cc",28294.027,6,0.100,4802.000,0.200,1027.000,0.300,89.000,0.500,21.000,1.000,3.000,5.000,0
"05/10/08","05:14:48",5649.000,"cc",28331.170,6,0.100,4583.000,0.200,943.000,0.300,101.000,0.500,21.000,1.000,1.000,5.000,0
"05/10/08","05:14:54",7250.000,"cc",28311.490,6,0.100,5976.000,0.200,1157.000,0.300,98.000,0.500,19.000,1.000,0,5.000,0
"05/10/08","05:15:00",7845.000,"cc",28285.113,6,0.100,6385.000,0.200,1333.000,0.300,108.000,0.500,18.000,1.000,1.000,5.000,0
"05/10/08","05:15:06",8131.000,"cc",28388.285,6,0.100,6696.000,0.200,1281.000,0.300,129.000,0.500,23.000,1.000,2.000,5.000,0
"05/10/08","05:15:12",6623.000,"cc",28321.834,6,0.100,5378.000,0.200,1132.000,0.300,98.000,0.500,15.000,1.000,0,5.000,0
"05/10/08","05:15:18",8791.000,"cc",28228.943,6,0.100,7266.000,0.200,1403.000,0.300,101.000,0.500,20.000,1.000,1.000,5.000,0
"05/10/08","05:15:24",9243.000,"cc",28310.820,6,0.100,7704.000,0.200,1399.000,0.300,121.000,0.500,17.000,1.000,2.000,5.000,0
"05/10/08","05:15:30",11171.000,"cc",28313.102,6,0.100,9335.000,0.200,1700.000,0.300,122.000,0.500,13.000,1.000,1.000,5.000,0
"05/10/08","05:15:36",14778.000,"cc",28340.104,6,0.100,12379.000,0.200,2206.000,0.300,174.000,0.500,18.000,1.000,1.000,5.000,0
"05/10/08","05:15:42",13391.000,"cc",28288.279,6,0.100,11158.000,0.200,2029.000,0.300,186.000,0.500,16.000,1.000,2.000,5.000,0
"05/10/08","05:15:48",16256.000,"cc",28379.086,6,0.100,13632.000,0.200,2433.000,0.300,173.000,0.500,17.000,1.000,1.000,5.000,0
"05/10/08","05:15:54",15443.000,"cc",28322.549,6,0.100,12915.000,0.200,2332.000,0.300,166.000,0.500,25.000,1.000,5.000,5.000,0
"05/10/08","05:16:00",11807.000,"cc",28271.629,6,0.100,9842.000,0.200,1811.000,0.300,130.000,0.500,23.000,1.000,1.000,5.000,0
"05/10/08","05:16:06",11916.000,"cc",28308.818,6,0.100,9848.000,0.200,1885.000,0.300,157.000,0.500,24.000,1.000,2.000,5.000,0
"05/10/08","05:16:12",21520.000,"cc",28309.254,6,0.100,18157.000,0.200,3102.000,0.300,230.000,0.500,30.000,1.000,1.000,5.000,0
"05/10/08","05:16:18",12621.000,"cc",28297.641,6,0.100,10558.000,0.200,1898.000,0.300,148.000,0.500,16.000,1.000,1.000,5.000,0
"05/10/08","05:16:24",9747.000,"cc",28397.119,6,0.100,8064.000,0.200,1525.000,0.300,133.000,0.500,22.000,1.000,3.000,5.000,0
"05/10/08","05:16:30",12142.000,"cc",28292.256,6,0.100,10128.000,0.200,1852.000,0.300,134.000,0.500,25.000,1.000,3.000,5.000,0
"05/10/08","05:16:36",14485.000,"cc",28294.486,6,0.100,12075.000,0.200,2200.000,0.300,171.000,0.500,38.000,1.000,1.000,5.000,0
"05/10/08","05:16:42",21111.000,"cc",28349.106,6,0.100,17917.000,0.200,2974.000,0.300,198.000,0.500,21.000,1.000,1.000,5.000,0
"05/10/08","05:16:48",15331.000,"cc",28295.377,6,0.100,12941.000,0.200,2199.000,0.300,162.000,0.500,29.000,1.000,0,5.000,0
"05/10/08","05:16:54",16166.000,"cc",28295.221,6,0.100,13652.000,0.200,2362.000,0.300,136.000,0.500,15.000,1.000,1.000,5.000,0
"05/10/08","05:17:00",16648.000,"cc",28336.248,6,0.100,14107.000,0.200,2341.000,0.300,178.000,0.500,20.000,1.000,2.000,5.000,0
"05/10/08","05:17:06",17541.000,"cc",28292.426,6,0.100,14993.000,0.200,2360.000,0.300,162.000,0.500,22.000,1.000,4.000,5.000,0
"05/10/08","05:17:12",18404.000,"cc",28206.453,6,0.100,15717.000,0.200,2516.000,0.300,150.000,0.500,16.000,1.000,5.000,5.000,0
"05/10/08","05:17:18",22585.000,"cc",28312.398,6,0.100,19376.000,0.200,3009.000,0.300,175.000,0.500,25.000,1.000,0,5.000,0
"05/10/08","05:17:24",21402.000,"cc",28383.428,6,0.100,18286.000,0.200,2938.000,0.300,158.000,0.500,18.000,1.000,2.000,5.000,0
"05/10/08","05:17:30",19057.000,"cc",28290.004,6,0.100,16254.000,0.200,2670.000,0.300,124.000,0.500,8.000,1.000,1.000,5.000,0
"05/10/08","05:17:36",16472.000,"cc",28344.965,6,0.100,14093.000,0.200,2230.000,0.300,123.000,0.500,24.000,1.000,2.000,5.000,0
"05/10/08","05:17:42",28339.000,"cc",28332.822,6,0.100,24420.000,0.200,3708.000,0.300,189.000,0.500,20.000,1.000,2.000,5.000,0
"05/10/08","05:17:48",28702.000,"cc",28308.326,6,0.100,24689.000,0.200,3805.000,0.300,185.000,0.500,20.000,1.000,3.000,5.000,0